Location: Aldenham
(51.6667°N, 0.3500°W)
Time: 01:08:42
(UTC+00:00)

A-11 Canister half - Pass Details

Date: 21 February 2026
Orbit: 1512 x 1687 km, 47.2° (Epoch: 8 March)

Event Time Altitude Azimuth Distance (km) Brightness Sun altitude
Rises 01:51:54 0° 285° (WNW) 4,904 - -44.5°
Reaches altitude 10° 01:55:17 10° 279° (W) 3,895 - -44.2°
Maximum altitude 02:04:21 43° 213° (SSW) 2,152 - -43.3°
Drops below altitude 10° 02:13:07 10° 146° (SSE) 3,757 - -42.4°
Sets 02:16:19 0° 140° (SE) 4,716 - -42.1°
